This is the latest recevied weather packets stored in our database for station/object SV9TNF-51. If no packets are shown the sender has not sent any weather packets the latest 10 day(s).
| Time | Temp. | Humidity | Pressure | Rain* | Wind** | Luminosity | Snow |
|---|---|---|---|---|---|---|---|
| 1788116847 | 25.56° C | 66% | 1013.2 hPa | 0 mm | 2.68 m/s, 236° | - | - |
| 1788116547 | 25.56° C | 65% | 1013.2 hPa | 0 mm | 2.68 m/s, 161° | - | - |
| 1788116247 | 25.56° C | 65% | 1013.2 hPa | 0 mm | 3.13 m/s, 63° | - | - |
| 1788115947 | 25.56° C | 64% | 1013.2 hPa | 0 mm | 2.24 m/s, 326° | - | - |
| 1788115647 | 25.56° C | 63% | 1013.2 hPa | 0 mm | 1.34 m/s, 139° | - | - |
| 1788115347 | 26.11° C | 61% | 1013.2 hPa | 0 mm | 4.02 m/s, 156° | - | - |
| 1788115047 | 26.11° C | 59% | 1013.2 hPa | 0 mm | 0 m/s | - | - |
| 1788114746 | 26.11° C | 60% | 1013.2 hPa | 0 mm | 0 m/s | - | - |
| 1788114447 | 26.11° C | 60% | 1013.2 hPa | 0 mm | 1.79 m/s, 110° | - | - |
| 1788114146 | 26.11° C | 60% | 1013.2 hPa | 0 mm | 1.79 m/s, 102° | - | - |
| 1788113846 | 26.11° C | 58% | 1013.2 hPa | 0 mm | 4.47 m/s, 39° | - | - |
| 1788113547 | 26.67° C | 57% | 1013.2 hPa | 0 mm | 5.81 m/s, 336° | - | - |
| 1788113246 | 26.67° C | 56% | 1012.5 hPa | 0 mm | 5.36 m/s, 317° | - | - |
| 1788112946 | 26.67° C | 57% | 1012.5 hPa | 0 mm | 0.89 m/s, 133° | - | - |
| 1788112646 | 27.22° C | 57% | 1012.5 hPa | 0 mm | 0 m/s | - | - |
| 1788112346 | 27.22° C | 55% | 1012.5 hPa | 0 mm | 1.34 m/s, 140° | - | - |
| 1788112046 | 27.78° C | 54% | 1012.2 hPa | 0 mm | 0 m/s | - | - |
| 1788111745 | 27.78° C | 54% | 1012.2 hPa | 0 mm | 1.79 m/s, 126° | - | - |
| 1788111445 | 27.78° C | 54% | 1012.2 hPa | 0 mm | 0 m/s | - | - |
| 1788111145 | 28.33° C | 50% | 1012.2 hPa | 0 mm | 0 m/s | - | - |
| 1788110845 | 28.33° C | 46% | 1012.2 hPa | 0 mm | 0 m/s | - | - |
| 1788110545 | 28.33° C | 47% | 1011.9 hPa | 0 mm | 0 m/s | - | - |
| 1788110245 | 28.33° C | 46% | 1011.9 hPa | 0 mm | 0 m/s | - | - |
| 1788109945 | 28.33° C | 46% | 1011.9 hPa | 0 mm | 0 m/s | - | - |
| 1788109645 | 28.33° C | 46% | 1011.9 hPa | 0 mm | 0 m/s | - | - |
* Rain latest hour (hover to see other rain measurements)
** Current wind speed in m/s (hover to see current wind gust speed)